Regional Weather Roundup
Issued by NWS Lake Charles, LA

Home | Current Version | Previous Version | Text Only | Print | Product List | Glossary On
Versions: 1 2 3 4 5 6 7 8 9 10 11 12 13 14 15 16 17 18 19 20 21 22 23 24 25 26 27 28
000
ASUS44 KLCH 290010
RWRLCH
REGIONAL WEATHER ROUNDUP
NATIONAL WEATHER SERVICE LAKE CHARLES LA
700 PM CDT THU JUL 28 2016

Note: "fair" indicates few or no clouds below 12,000 feet with no
significant weather and/or obstructions to visibility.


ACROSS SOUTHEAST TEXAS

CITY           SKY/WX    TMP DP  RH WIND       PRES   REMARKS
BEAUMONT       MOSUNNY   85  74  69 N3        29.98R
BEAUMONT CITY  FAIR      83  73  73 CALM      30.00R
ORANGE         CLOUDY    82  70  68 N5        30.01S
JASPER         LGT RAIN  74  72  91 NE8       30.03F
$$

ACROSS CENTRAL LOUISIANA

CITY           SKY/WX    TMP DP  RH WIND       PRES   REMARKS
LEESVILLE      NOT AVBL
FULLERTON      LGT RAIN  74  72  93 CALM      30.01F
ALEXANDRIA INT LGT RAIN  75  73  93 S7        30.01S
ESLER FIELD    PTSUNNY   77  75  93 SW7       30.02R
DERIDDER       LGT RAIN  73  72  96 N5        30.04F
OAKDALE        RAIN      74  73  98 N5        30.03S
OPELOUSAS      MOCLDY    77  72  83 W12G21    30.06R
$$

ACROSS SOUTHWEST AND SOUTH CENTRAL LOUISIANA

CITY           SKY/WX    TMP DP  RH WIND       PRES   REMARKS
SULPHUR        PTCLDY    83  73  71 N6        30.01R
LAKE CHARLES   CLOUDY    84  74  71 N9        30.00R
CHENNAULT INT  NOT AVBL
CAMERON PHI    PTCLDY    86  79  79 VRB3      29.98S
DEQUINCY       FAIR      77  73  88 N3        30.01S
JENNINGS       FAIR      77  72  83 NE8       30.01S
LAFAYETTE      LGT RAIN  78  72  81 VRB5      30.02R
NEW IBERIA     TSTM      79  71  76 N20       30.02R
ABBEVILLE      CLOUDY    82  74  79 NE7       30.00R THUNDER
PATTERSON      CLOUDY    85  79  82 SW6       30.00S
SALT POINT       N/A     86  76  71 CALM      29.98R
$$

SELECTED SITES ACROSS THE REGION

CITY           SKY/WX    TMP DP  RH WIND       PRES   REMARKS
HOUSTON BUSH   PTSUNNY   84  74  71 CALM      29.96S
HOUSTON HOBBY  PTSUNNY   87  73  62 CALM      29.95F
GALVESTON      SUNNY     86  77  74 S7        29.97F
COLLEGE STAT   MOSUNNY   82  70  66 S12       29.94S
CONROE         CLOUDY    81  74  79 SE3       29.98R
HUNTSVILLE     CLOUDY    82  74  76 VRB7      29.96F
LUFKIN         CLOUDY    75  74  96 E8        29.99F
SHREVEPORT     CLOUDY    75  73  93 SW7       29.98S
MONROE         CLOUDY    77  74  90 SW5       30.00R
NATCHEZ MS     CLOUDY    77  72  83 S3        30.00S
BATON ROUGE    CLOUDY    80  73  79 N3        30.01S
N.O. INTL ARPT CLOUDY    85  72  65 NE7       29.99F
SLIDELL        CLOUDY    80  72  76 CALM      30.00S
$$

MARINE REPORTS

STATION/POSITION TIME  SKY/WX   TEMP    WIND        PRES    VSBY
                                AIR SEA DIR/SP/G
                 (UTC)          (F)     (DEG/KT/KT) (MB)    (MI)
BUOY 30 S HIGH I 2350            88 87   10/  2/  2 1014.9F
WVE H/P(F/S)=  2/ 5

SEA RIM ST PARK  0000            86     350/  2/  3 1015.8R
PORT ARTHUR      NOT AVBL
SABINE PASS N    2300               88                N/A
TEXAS POINT      NOT AVBL
CALCASIEU PASS   2300               87                N/A
LK CHARLES BEACH 2300               86                N/A
MARSH ISLAND     2300            88                   N/A
FRESH WATER LOCK 2300               85                N/A
AMERADA PASS     2300               90                N/A
$$




USA.gov is the U.S. government's official web portal to all federal, state and local government web resources and services.